Weather History for KEET - May, 2012

Change the Weather History Date:

Thursday, May 3, 2012

  Actual Average Record
Temperature  
Mean Temperature 72 °F 67 °F  
Max Temperature 76 °F 79 °F 87 °F (1959)
Min Temperature 67 °F 56 °F 34 °F (1981)
Cooling Degree Days 7 4  
Month to date cooling degree days 32 11  
Year to date cooling degree days 244 86  
Growing Degree Days 22 (Base 50)    
Moisture  
Dew Point 69 °F    
Average Humidity 87    
Maximum Humidity 100    
Minimum Humidity 74    
Precipitation  
Precipitation 0.36 in 0.14 in 1.42 in (1957)
Month to date precipitation 0.46 0.42  
Year to date precipitation 20.31 19.87  
Sea Level Pressure  
Sea Level Pressure 30.09 in    
Wind  
Wind Speed 2 mph (SE)    
Max Wind Speed 9 mph    
Max Gust Speed 15 mph    
Visibility 9 miles    
Events Rain    
T = Trace of Precipitation, MM = Missing Value Source: NWS Daily Summary

Daily Weather History Graph

Daily Weather History Graph

Search for Another Location

Airport or City:

Trip Planner

Search our weather history database for the weather conditions in past years. The results will help you decide how hot, cold, wet, or windy it might be!

Date:

Astronomy

May. 03, 2012 Rise Set
Actual Time 5:56 AM CDT 7:31 PM CDT
Civil Twilight 5:30 AM CDT 7:58 PM CDT
Nautical Twilight 4:58 AM CDT 8:29 PM CDT
Astronomical Twilight 4:25 AM CDT 9:03 PM CDT
Moon 5:01 PM CDT 3:52 AM CDT
Length of Visible Light 14h 27m
Length of Day
13h 34m
Waxing Gibbous, 91% of the Moon is Illuminated
May 3
Waxing Gibbous
May 5
Full
May 12
Last Quarter
May 20
New
May 28
First Quarter

Hourly Weather History & Observations

Time (CDT) Temp. Dew Point Humidity Pressure Visibility Wind Dir Wind Speed Gust Speed Precip Events Conditions
12:53 AM 71.1 °F 71.1 °F 100% 30.06 in 9.0 mi Calm Calm - N/A   Mostly Cloudy
1:53 AM 71.1 °F 71.1 °F 100% 30.04 in 9.0 mi Calm Calm - 0.01 in Rain Light Rain
2:53 AM 70.0 °F 70.0 °F 100% 30.03 in 8.0 mi Calm Calm - 0.00 in Rain Light Rain
3:53 AM 70.0 °F 70.0 °F 100% 30.03 in 10.0 mi Calm Calm - 0.00 in   Overcast
4:53 AM 69.1 °F 69.1 °F 100% 30.04 in 10.0 mi Calm Calm - 0.12 in   Overcast
5:53 AM 68.0 °F 68.0 °F 100% 30.06 in 10.0 mi Calm Calm - N/A   Overcast
6:53 AM 68.0 °F 68.0 °F 100% 30.09 in 10.0 mi Calm Calm - N/A   Overcast
7:43 AM 68.0 °F 68.0 °F 100% 30.12 in 2.5 mi Calm Calm - 0.06 in Rain Light Rain
7:51 AM 68.0 °F 68.0 °F 100% 30.13 in 5.0 mi Calm Calm - 0.06 in Rain Light Rain
7:53 AM 68.0 °F 68.0 °F 100% 30.12 in 6.0 mi Calm Calm - 0.06 in Rain Light Rain
8:53 AM 69.1 °F 69.1 °F 100% 30.12 in 6.0 mi Calm Calm - 0.03 in Rain Light Rain
9:12 AM 69.8 °F 69.8 °F 100% 30.14 in 1.8 mi Calm Calm - 0.04 in Rain Rain
9:23 AM 69.8 °F 69.8 °F 100% 30.13 in 3.0 mi Calm Calm - 0.06 in Rain Light Rain
9:53 AM 70.0 °F 70.0 °F 100% 30.12 in 7.0 mi Variable 3.5 mph - 0.07 in Rain Light Rain
10:53 AM 71.1 °F 71.1 °F 100% 30.12 in 8.0 mi East 5.8 mph - 0.03 in   Overcast
11:20 AM 71.6 °F 71.6 °F 100% 30.13 in 10.0 mi Variable 4.6 mph - N/A   Mostly Cloudy
11:53 AM 73.0 °F 72.0 °F 96% 30.11 in 10.0 mi Calm Calm - N/A   Mostly Cloudy
12:01 PM 73.4 °F 71.6 °F 94% 30.13 in 10.0 mi Variable 3.5 mph - N/A   Mostly Cloudy
12:53 PM 75.0 °F 72.0 °F 90% 30.10 in 10.0 mi Variable 4.6 mph - 0.00 in   Mostly Cloudy
1:24 PM 75.2 °F 71.6 °F 89% 30.12 in 10.0 mi Variable 4.6 mph - N/A   Overcast
1:53 PM 75.0 °F 69.1 °F 82% 30.09 in 10.0 mi Variable 4.6 mph - N/A   Overcast
2:42 PM 75.2 °F 66.2 °F 73% 30.12 in 10.0 mi SE 5.8 mph - N/A   Overcast
2:53 PM 75.0 °F 66.9 °F 76% 30.09 in 10.0 mi SE 6.9 mph - N/A   Overcast
3:53 PM 73.0 °F 69.1 °F 87% 30.09 in 10.0 mi SE 6.9 mph - 0.04 in Rain Light Rain
4:33 PM 73.4 °F 68.0 °F 83% 30.10 in 10.0 mi SE 5.8 mph - 0.00 in   Overcast
4:53 PM 73.9 °F 66.9 °F 79% 30.09 in 10.0 mi SSE 4.6 mph - 0.00 in   Overcast
5:18 PM 75.2 °F 66.2 °F 73% 30.09 in 10.0 mi ESE 4.6 mph - N/A   Mostly Cloudy
5:39 PM 75.2 °F 66.2 °F 73% 30.08 in 10.0 mi East 3.5 mph - N/A   Scattered Clouds
5:53 PM 75.0 °F 66.0 °F 73% 30.07 in 10.0 mi ESE 3.5 mph - N/A   Mostly Cloudy
6:53 PM 73.9 °F 66.0 °F 76% 30.07 in 10.0 mi SE 3.5 mph - N/A   Overcast
7:53 PM 71.1 °F 66.0 °F 84% 30.06 in 10.0 mi Calm Calm - N/A   Clear
8:53 PM 70.0 °F 66.9 °F 90% 30.07 in 10.0 mi Calm Calm - N/A   Clear
9:53 PM 68.0 °F 66.0 °F 93% 30.08 in 9.0 mi Calm Calm - N/A   Clear
10:53 PM 68.0 °F 66.0 °F 93% 30.06 in 8.0 mi Calm Calm - N/A   Overcast
11:53 PM 69.1 °F 66.9 °F 93% 30.06 in 10.0 mi Calm Calm - N/A   Overcast